EDT,Max TemperatureF,Mean TemperatureF,Min TemperatureF,Max Dew PointF,MeanDew PointF,Min DewpointF,Max Humidity, Mean Humidity, Min Humidity, Max Sea Level PressureIn, Mean Sea Level PressureIn, Min Sea Level PressureIn, Max VisibilityMiles, Mean VisibilityMiles, Min VisibilityMiles, Max Wind SpeedMPH, Mean Wind SpeedMPH, Max Gust SpeedMPH,PrecipitationIn, CloudCover, Events, WindDirDegrees
2013-9-1,86,77,68,70,67,64,90,73,55,29.97,29.87,29.82,10,10,5,17,5,22,0.27,4,Rain-Thunderstorm,224
2013-9-2,86,77,68,72,69,66,90,76,61,29.97,29.89,29.81,10,9,2,12,4,23,0.40,5,Rain-Thunderstorm,240
2013-9-3,83,73,63,68,65,58,90,68,46,30.05,29.96,29.87,10,8,4,12,3,17,0.00,5,Rain-Thunderstorm,34
2013-9-4,81,70,58,63,59,56,93,71,48,30.18,30.12,30.05,10,9,1,8,1,13,0.00,2,,14
2013-9-5,83,69,55,64,58,53,93,70,47,30.21,30.17,30.14,10,9,2,10,2,21,0.00,1,,44
2013-9-6,85,72,59,64,61,57,93,67,40,30.23,30.17,30.09,10,7,0,10,1,16,0.00,2,Fog,23
2013-9-7,85,72,59,67,61,57,97,73,48,30.14,30.08,30.00,10,7,1,9,2,15,0.00,2,,263
2013-9-8,87,76,65,68,64,61,93,68,42,30.04,30.00,29.96,10,6,1,9,1,13,0.01,2,,22
2013-9-9,88,77,65,71,66,63,93,72,50,30.09,30.06,30.02,10,6,2,9,1,21,0.00,0,,186
2013-9-10,89,79,68,72,68,66,93,72,50,30.20,30.15,30.09,10,7,3,12,2,16,0.00,1,,193
2013-9-11,87,78,69,70,68,66,93,74,55,30.22,30.17,30.09,10,7,2,13,3,25,0.00,1,Thunderstorm,256
2013-9-12,87,77,67,72,68,64,93,74,55,30.10,29.99,29.90,10,6,0,15,4,20,0.13,3,Fog-Rain-Thunderstorm,275
2013-9-13,74,63,52,65,56,45,93,69,44,30.05,29.97,29.90,10,7,0,16,6,22,0.00,4,Fog,345
2013-9-14,72,60,48,50,47,44,93,69,44,30.15,30.10,30.04,10,10,10,13,4,21,0.00,2,,41
2013-9-15,79,65,50,60,54,47,90,69,47,30.17,30.12,30.09,10,10,6,15,3,18,0.00,2,,196
2013-9-16,72,66,59,62,59,57,90,79,68,30.23,30.17,30.10,10,9,5,8,2,17,0.08,6,Rain,58
2013-9-17,80,68,55,63,57,54,93,72,51,30.27,30.21,30.14,10,8,1,8,3,12,0.00,2,,38
2013-9-18,70,67,63,63,61,57,87,83,78,30.22,30.16,30.12,10,9,2,8,2,12,0.08,7,Rain,161
2013-9-19,82,72,61,67,63,57,97,78,58,30.17,30.12,30.04,10,7,2,12,3,15,0.00,3,,235
2013-9-20,83,73,63,65,63,61,93,74,55,30.08,30.01,29.85,10,6,1,13,3,17,0.00,1,,221
2013-9-21,72,63,54,65,62,53,93,75,57,29.86,29.80,29.70,10,7,2,16,3,25,1.27,6,Rain,282
2013-9-22,73,62,50,52,50,48,89,68,47,29.98,29.92,29.86,10,10,8,9,3,13,0.00,0,,27
2013-9-23,76,63,49,58,52,47,89,70,50,30.06,30.01,29.97,10,10,9,9,3,12,0.00,0,,47
2013-9-24,79,66,53,60,55,50,93,70,47,30.06,29.98,29.89,10,10,9,8,1,12,0.00,3,,133
2013-9-25,74,69,63,65,62,60,93,79,64,29.92,29.88,29.84,10,7,0,10,2,14,0.37,6,Fog-Rain-Thunderstorm,115
2013-9-26,77,67,57,63,59,55,100,75,50,30.06,29.98,29.90,10,8,0,10,3,16,0.00,4,Fog,48
2013-9-27,81,67,52,59,54,50,96,69,42,30.17,30.11,30.06,10,6,0,7,1,9,0.00,2,Fog,76
2013-9-28,80,66,52,61,55,50,93,68,42,30.22,30.14,30.10,10,9,1,9,1,13,0.00,1,,257
2013-9-29,73,64,55,59,56,53,93,73,53,30.13,30.10,30.02,10,6,0,10,2,23,0.00,3,Fog,227
2013-9-30,77,66,55,58,55,51,93,68,43,30.08,30.04,29.99,10,7,0,10,3,20,0.00,4,Fog,218